Zurück zum Katalog

HULIANWANG DIGUI-15

AktivKommunikationLEO
NORAD 62975·PAYLOAD·🇨🇳 China

Gestartet Feb 11, 2025 von Wenchang Space Launch Site

Loading…

Nächste Überflüge (nächste 24 Stunden)

TLE

AktuellSource: Space-Track

Epoche: Sep 14, 2026, 23:35 UTC

1 62975U 25030E   26257.98289623 -.00000093  00000-0  66948-4 0  9998
2 62975  50.0019 273.6889 0000353  36.3395 323.7501 13.29327047 77800

Verfolge HULIANWANG DIGUI-15 in Echtzeit mit AllMySat

Download on the App Store